Regional Weather Roundup
Issued by NWS Lake Charles, LA

Home | Current Version | Previous Version | Text Only | Print | Product List | Glossary On
Versions: 1 2 3 4 5 6 7 8 9 10 11 12 13 14 15 16 17 18 19 20 21 22 23 24 25 26 27
000
ASUS44 KLCH 281710
RWRLCH
REGIONAL WEATHER ROUNDUP
NATIONAL WEATHER SERVICE LAKE CHARLES LA
1200 PM CDT SUN MAY 28 2017

Note: "fair" indicates few or no clouds below 12,000 feet with no
significant weather and/or obstructions to visibility.


ACROSS SOUTHEAST TEXAS

CITY           SKY/WX    TMP DP  RH WIND       PRES   REMARKS
BEAUMONT       MOSUNNY   88  76  67 SE7       29.98S
BEAUMONT CITY  PTSUNNY   88  74  65 MISG      29.99R
ORANGE         PTSUNNY   86  77  75 S7        30.01R
JASPER         CLOUDY    83  77  81 E9        30.01F
$$

ACROSS CENTRAL LOUISIANA

CITY           SKY/WX    TMP DP  RH WIND       PRES   REMARKS
LEESVILLE      CLOUDY    77  65  66 E7        30.00F
FULLERTON      FAIR      76  68  76 VRB3      29.99F
ALEXANDRIA INT CLOUDY    78  68  71 SE14      30.01F
ESLER FIELD    PTSUNNY   78  70  76 SE17      30.03F
DERIDDER       FAIR      82  69  66 NE10G16   30.02F
OAKDALE        LGT RAIN  75  70  86 NE9       30.04R
OPELOUSAS      CLOUDY    82  67  60 NE18G24   30.06R
$$

ACROSS SOUTHWEST AND SOUTH CENTRAL LOUISIANA

CITY           SKY/WX    TMP DP  RH WIND       PRES   REMARKS
SULPHUR        MOSUNNY   88  75  64 S8        30.01S
LAKE CHARLES   PTSUNNY   89  75  63 SE10      30.00R
CHENNAULT INT  CLOUDY    86  77  74 SE3       30.01R
CAMERON PHI    SUNNY     82  79  89 SE13      30.00S HAZE
DEQUINCY       PTSUNNY   86  75  69 SE6       29.99F
JENNINGS       PTSUNNY   86  75  68 SW3       30.02S
LAFAYETTE      CLOUDY    85  75  72 S7        30.02F
NEW IBERIA     MOSUNNY   89  73  59 S7        30.03F
ABBEVILLE      FAIR      88  79  74 S5        30.03S HX 102
PATTERSON      MOSUNNY   86  75  69 S7        30.04F
SALT POINT       N/A     85  75  72 VRB6      30.02S
$$

SELECTED SITES ACROSS THE REGION

CITY           SKY/WX    TMP DP  RH WIND       PRES   REMARKS
HOUSTON BUSH   PTSUNNY   90  75  61 VRB7      29.96F HX 100
HOUSTON HOBBY  PTSUNNY   88  75  65 SE7       29.96F
GALVESTON      MOSUNNY   86  79  79 SE14      29.99F
COLLEGE STAT   PTSUNNY   86  74  67 S13       29.93F
CONROE         MOSUNNY   88  74  63 S13       29.95F
HUNTSVILLE     PTSUNNY   87  72  60 VRB3      29.96S
LUFKIN         MOSUNNY   83  71  67 SE12      29.97F
SHREVEPORT     CLOUDY    77  69  76 S13       29.95F
MONROE         CLOUDY    73  65  75 S6        29.99R
NATCHEZ MS     CLOUDY    71  66  84 SE12      30.03F
BATON ROUGE    PTSUNNY   86  73  65 MISG      30.04R
N.O. INTL ARPT CLOUDY    86  74  67 S5        30.05R
SLIDELL        CLOUDY    88  71  57 S6        30.05R
$$

MARINE REPORTS

STATION/POSITION TIME  SKY/WX   TEMP    WIND        PRES    VSBY
                                AIR SEA DIR/SP/G
                 (UTC)          (F)     (DEG/KT/KT) (MB)    (MI)
BUOY 30 S HIGH I 1550            80 80   60/  4/  6 1016.0
WVE H/P(F/S)=  3/ 6

SEA RIM ST PARK  1700            82     150/ 11/ 12 1016.0F
PORT ARTHUR      1648            85 80  140/  6/  9 1015.9S
SABINE PASS N    1648            82 82  130/ 12/ 15 1017.1F
TEXAS POINT      NOT AVBL
CALCASIEU PASS   1648            81 81  160/ 11/ 14   N/A
LK CHARLES BEACH 1648            86 79              1016.4S
MARSH ISLAND     1600            80                   N/A
FRESH WATER LOCK 1648            81 82  140/  9/ 12 1017.0R
AMERADA PASS     1648            83 77  190/  1/  5 1017.2F
$$




USA.gov is the U.S. government's official web portal to all federal, state and local government web resources and services.